ATLAS 5 CENTAUR DEB, 44693

Orbit data source: Space-Track

ATLAS 5 CENTAUR DEB, 44693 is space debris in HEO originally from a launch on Wed, 17 Oct 2018 UTC launched from the Air Force Eastern Test Range (AFETR). Debris objects in space refer to the collection of defunct objects orbiting the Earth. Examples of debris include non-operational satellites, rocket bodies, and fragments generated from explosions, collisions, or faulty payload assembly.

Loading next visibility...
Identifier
44693, 2018-079BF
Orbit
HEO
Country
Flag of USUS
Related business
Flag of USUnited Launch Alliance/Lockheed Martin (US)
Manufacturer
ULA Decatur
Mission
Spacecraft
Bus & Motor
Unknown
Mass
Unknown
Launch date (UTC)
2018-10-17 (8 years ago)
Launch vehicle
Unknown
Launch site
Air Force Eastern Test Range (AFETR)
Object type
Payload
Rocket body
Debris
Shape & HBR
Unknown shape, 1.1 m
Radar Cross Section
Medium (>0.1 m² and <1 m²)

Expand to show TLE details & history
Last TLE update: 3 days ago

TLE from 3 days ago
0 ATLAS 5 CENTAUR DEB
1 44693U 18079BF  26170.73122393 -.00000103  00000-0  00000-0 0  9992
2 44693  13.5013  40.6258 4676928 299.2738  21.9971  1.78460935 46921
Epoch: 2026-06-19T17:32Z
TLE epoch observation values (Epoch: 2026-06-19T17:32:57.747Z)
Latitude
0.00009°
Longitude
-130.5896°
Altitude
11,908.326 km
Speed
5.451 km/s
True Right ascension
02h 42m 25s
True Declination
0° 00' 00"
Sunlit
Object was in daylight at epoch
Visualization orbit readout
Latitude
Unknown
Longitude
Unknown
Altitude
Unknown
Speed
Unknown
Apparent Right ascension
Unknown
Apparent Declination
Unknown
Sunlit
N/A
Visualization observer readout
Local Sidereal Time
23:18:33
Azimuth
Unknown
Elevation
Unknown
Doppler factor
Unknown
Orbital elements
Apogee altitude
35,762.978 km
Perigee altitude
8,905.728 km
Semi-major axis
28,712.49 km
Eccentricity
0.46769
Inclination
13.5013°
RAAN
40.6258°
Arg. of periapsis
299.2738°
True anomaly
60.60795°
Mean anomaly
21.9971°
Eccentric anomaly
38.78126°
Mean motion
0.4461 °/min
Orbital period
806.99 mins
BSTAR
0
Loading maneuver chart data...
Computing Atmospheric mass density...

Documentation

Showing up to 5 results
|